Weather History for New Bedford, MA

Change the Weather History Date:

Tuesday, November 20, 2012

  Actual Average Record
Temperature  
Mean Temperature 42 °F -  
Max Temperature 51 °F 51 °F 67 °F (1953)
Min Temperature 34 °F 36 °F 21 °F (2007)
Degree Days  
Heating Degree Days 22    
Moisture  
Dew Point 35 °F    
Average Humidity 80    
Maximum Humidity 96    
Minimum Humidity 56    
Precipitation  
Precipitation 0.00 in - - ()
Sea Level Pressure  
Sea Level Pressure 30.16 in    
Wind  
Wind Speed 5 mph (North)    
Max Wind Speed 12 mph    
Max Gust Speed 20 mph    
Visibility 9 miles    
Events      
Averages and records for this station are not official NWS values.
T = Trace of Precipitation, MM = Missing Value Source: NWS Daily Summary

Daily Weather History Graph

Daily Weather History Graph

Search for Another Location

Airport:

Trip Planner

Search our weather history database for the weather conditions in past years. The results will help you decide how hot, cold, wet, or windy it might be!

Date:

Astronomy

Nov. 20, 2012 Rise Set
Actual Time 6:39 AM EST 4:19 PM EST
Civil Twilight 6:09 AM EST 4:49 PM EST
Nautical Twilight 5:35 AM EST 5:23 PM EST
Astronomical Twilight 5:02 AM EST 5:56 PM EST
Moon 12:09 PM EST (11/20) 11:51 PM EST (11/20)
Length of Visible Light 10h 40m
Length of Day
9h 39m
Waxing Crescent, 51% of the Moon is Illuminated
Nov 20
Waxing Crescent
Nov 28
Full
Dec 6
Last Quarter
Dec 13
New
Dec 20
First Quarter

Hourly Weather History & Observations

Time (EST) Temp. Windchill Dew Point Humidity Pressure Visibility Wind Dir Wind Speed Gust Speed Precip Events Conditions
12:53 AM 39.9 °F 35.1 °F 36.0 °F 86% 30.23 in 10.0 mi North 6.9 mph - N/A   Overcast
1:48 AM 37.4 °F 34.9 °F 35.6 °F 93% 30.21 in 10.0 mi North 3.5 mph - N/A   Scattered Clouds
1:53 AM 37.9 °F 34.4 °F 35.1 °F 89% 30.21 in 10.0 mi North 4.6 mph - N/A   Partly Cloudy
2:53 AM 37.0 °F 34.5 °F 34.0 °F 89% 30.20 in 10.0 mi NNW 3.5 mph - N/A   Clear
3:53 AM 36.0 °F 32.1 °F 34.0 °F 93% 30.17 in 10.0 mi North 4.6 mph - N/A   Clear
4:53 AM 36.0 °F 32.1 °F 34.0 °F 93% 30.17 in 7.0 mi NNW 4.6 mph - N/A   Clear
5:53 AM 35.1 °F 31.0 °F 34.0 °F 96% 30.17 in 6.0 mi NNW 4.6 mph - N/A   Clear
6:53 AM 34.0 °F 29.8 °F 33.1 °F 96% 30.18 in 3.0 mi NNW 4.6 mph - N/A   Scattered Clouds
7:53 AM 37.0 °F 34.5 °F 35.1 °F 93% 30.18 in 5.0 mi NNW 3.5 mph - N/A   Clear
8:53 AM 41.0 °F - 37.0 °F 86% 30.18 in 10.0 mi Calm Calm - N/A   Clear
9:53 AM 46.0 °F 43.1 °F 37.9 °F 73% 30.18 in 10.0 mi North 5.8 mph - N/A   Mostly Cloudy
10:53 AM 48.0 °F - 37.9 °F 68% 30.16 in 10.0 mi NNE 8.1 mph - N/A   Mostly Cloudy
11:53 AM 51.1 °F - 37.0 °F 59% 30.14 in 10.0 mi NE 11.5 mph 16.1 mph N/A   Overcast
12:30 PM 51.8 °F - 37.4 °F 58% 30.13 in 10.0 mi NE 9.2 mph - N/A   Scattered Clouds
12:53 PM 51.1 °F - 37.0 °F 59% 30.13 in 10.0 mi NE 11.5 mph - N/A   Partly Cloudy
1:53 PM 51.1 °F - 36.0 °F 56% 30.11 in 10.0 mi NNE 11.5 mph 17.3 mph N/A   Scattered Clouds
2:53 PM 48.9 °F - 36.0 °F 61% 30.12 in 10.0 mi NNE 9.2 mph 19.6 mph N/A   Scattered Clouds
3:53 PM 46.9 °F - 36.0 °F 66% 30.13 in 10.0 mi North 5.8 mph - N/A   Mostly Cloudy
4:04 PM 46.4 °F 44.3 °F 35.6 °F 66% 30.12 in 10.0 mi NNE 4.6 mph - N/A   Scattered Clouds
4:53 PM 44.1 °F 42.5 °F 35.1 °F 71% 30.13 in 10.0 mi North 3.5 mph - N/A   Clear
5:53 PM 39.9 °F 37.8 °F 35.1 °F 83% 30.14 in 10.0 mi NNW 3.5 mph - N/A   Clear
6:53 PM 39.9 °F 37.8 °F 35.1 °F 83% 30.14 in 10.0 mi North 3.5 mph - N/A   Clear
7:53 PM 39.0 °F 36.8 °F 35.1 °F 86% 30.14 in 10.0 mi North 3.5 mph - N/A   Clear
8:53 PM 39.0 °F - 35.1 °F 86% 30.14 in 10.0 mi Calm Calm - N/A   Clear
9:53 PM 37.9 °F - 35.1 °F 89% 30.14 in 10.0 mi Calm Calm - N/A   Clear
10:53 PM 39.0 °F 36.8 °F 35.1 °F 86% 30.13 in 10.0 mi NNW 3.5 mph - N/A   Clear
11:53 PM 35.1 °F - 33.1 °F 92% 30.14 in 10.0 mi Calm Calm - N/A   Clear